• în România
  • Lista ţărilor
  • Pe 7 zile
  • Temperatura apei
  • Hartă satelitară
  • Meteo pe hartă
  • Widget-uri
  • user-avatar
    Intrare

    Meteo pe oră la Annaba

    Astăzi, 26 Iulie, Miercuri

    Timp Temperatura Precipitaţii Vânt Presiune Umiditate
    00:00 +25°C° 0 mm 2 m/s 758 mmHg 71%
    01:00 +25°C° 0 mm 2 m/s 758 mmHg 73%
    02:00 +25°C° 0 mm 2 m/s 758 mmHg 74%
    03:00 +24°C° 0 mm 2 m/s 758 mmHg 75%
    04:00 +24°C° 0 mm 2 m/s 758 mmHg 77%
    05:00 +25°C° 0 mm 2 m/s 758 mmHg 75%
    06:00 +25°C° 0 mm 3 m/s 758 mmHg 72%
    07:00 +26°C° 0 mm 3 m/s 758 mmHg 68%
    08:00 +27°C° 0 mm 3 m/s 758 mmHg 62%
    09:00 +28°C° 0 mm 3 m/s 758 mmHg 55%
    10:00 +30°C° 0 mm 4 m/s 759 mmHg 49%
    11:00 +32°C° 0 mm 4 m/s 759 mmHg 46%
    12:00 +33°C° 0 mm 4 m/s 758 mmHg 43%
    13:00 +33°C° 0 mm 5 m/s 758 mmHg 39%
    14:00 +33°C° 0 mm 5 m/s 758 mmHg 40%
    15:00 +33°C° 0 mm 5 m/s 758 mmHg 40%
    16:00 +33°C° 0 mm 5 m/s 758 mmHg 41%
    17:00 +32°C° 0 mm 4 m/s 758 mmHg 45%
    18:00 +30°C° 0 mm 4 m/s 758 mmHg 49%
    19:00 +29°C° 0 mm 3 m/s 758 mmHg 53%
    20:00 +28°C° 0 mm 3 m/s 759 mmHg 58%
    21:00 +27°C° 0 mm 2 m/s 759 mmHg 63%
    22:00 +26°C° 0 mm 2 m/s 760 mmHg 67%
    23:00 +25°C° 0 mm 2 m/s 760 mmHg 69%

    Mâine, 27 Iulie, Joi

    Timp Temperatura Precipitaţii Vânt Presiune Umiditate
    00:00 +25°C° 0 mm 2 m/s 760 mmHg 71%
    01:00 +24°C° 0 mm 2 m/s 760 mmHg 73%
    02:00 +24°C° 0 mm 2 m/s 760 mmHg 74%
    03:00 +24°C° 0 mm 2 m/s 760 mmHg 74%
    04:00 +24°C° 0 mm 2 m/s 759 mmHg 75%
    05:00 +24°C° 0 mm 2 m/s 760 mmHg 71%
    06:00 +25°C° 0 mm 2 m/s 760 mmHg 68%
    07:00 +25°C° 0 mm 2 m/s 760 mmHg 64%
    08:00 +27°C° 0 mm 2 m/s 760 mmHg 57%
    09:00 +29°C° 0 mm 2 m/s 760 mmHg 50%
    10:00 +31°C° 0 mm 3 m/s 760 mmHg 43%
    11:00 +33°C° 0 mm 3 m/s 760 mmHg 40%
    12:00 +34°C° 0 mm 4 m/s 760 mmHg 37%
    13:00 +35°C° 0 mm 4 m/s 760 mmHg 34%
    14:00 +35°C° 0 mm 4 m/s 760 mmHg 34%
    15:00 +35°C° 0 mm 4 m/s 760 mmHg 35%
    16:00 +35°C° 0 mm 4 m/s 760 mmHg 36%
    17:00 +34°C° 0 mm 3 m/s 760 mmHg 40%
    18:00 +33°C° 0 mm 3 m/s 760 mmHg 44%
    19:00 +30°C° 0 mm 2 m/s 760 mmHg 48%
    20:00 +29°C° 0 mm 2 m/s 760 mmHg 53%
    21:00 +28°C° 0 mm 2 m/s 760 mmHg 58%
    22:00 +27°C° 0 mm 1 m/s 761 mmHg 64%
    23:00 +27°C° 0 mm 1 m/s 761 mmHg 63%

    Poimâine, 28 Iulie, Vineri

    Timp Temperatura Precipitaţii Vânt Presiune Umiditate
    00:00 +27°C° 0 mm 1 m/s 760 mmHg 62%
    01:00 +27°C° 0 mm 2 m/s 760 mmHg 61%
    02:00 +26°C° 0 mm 2 m/s 760 mmHg 60%
    03:00 +26°C° 0 mm 2 m/s 760 mmHg 58%
    04:00 +26°C° 0 mm 2 m/s 760 mmHg 56%
    05:00 +27°C° 0 mm 2 m/s 760 mmHg 53%
    06:00 +28°C° 0 mm 2 m/s 760 mmHg 50%
    07:00 +29°C° 0 mm 2 m/s 760 mmHg 47%
    08:00 +31°C° 0 mm 2 m/s 761 mmHg 41%
    09:00 +35°C° 0 mm 2 m/s 761 mmHg 35%
    10:00 +37°C° 0 mm 2 m/s 761 mmHg 29%
    11:00 +38°C° 0 mm 3 m/s 761 mmHg 28%
    12:00 +39°C° 0 mm 3 m/s 761 mmHg 26%
    13:00 +41°C° 0 mm 4 m/s 760 mmHg 25%
    14:00 +41°C° 0 mm 4 m/s 760 mmHg 25%
    15:00 +40°C° 0 mm 4 m/s 760 mmHg 26%
    16:00 +40°C° 0 mm 5 m/s 760 mmHg 27%
    17:00 +38°C° 0 mm 4 m/s 760 mmHg 30%
    18:00 +37°C° 0 mm 4 m/s 760 mmHg 33%
    19:00 +35°C° 0 mm 3 m/s 760 mmHg 36%
    20:00 +34°C° 0 mm 3 m/s 760 mmHg 40%
    21:00 +31°C° 0 mm 3 m/s 760 mmHg 44%
    22:00 +30°C° 0 mm 2 m/s 761 mmHg 48%
    23:00 +30°C° 0 mm 2 m/s 761 mmHg 49%

    29 Iulie, Sâmbătă

    Timp Temperatura Precipitaţii Vânt Presiune Umiditate
    00:00 +29°C° 0 mm 2 m/s 761 mmHg 51%
    01:00 +29°C° 0 mm 2 m/s 760 mmHg 52%
    02:00 +29°C° 0 mm 2 m/s 760 mmHg 51%
    03:00 +29°C° 0 mm 2 m/s 760 mmHg 51%
    04:00 +28°C° 0 mm 1 m/s 760 mmHg 50%
    05:00 +29°C° 0 mm 2 m/s 760 mmHg 48%
    06:00 +30°C° 0 mm 2 m/s 760 mmHg 45%
    07:00 +31°C° 0 mm 2 m/s 760 mmHg 43%
    08:00 +35°C° 0 mm 2 m/s 760 mmHg 37%
    09:00 +37°C° 0 mm 2 m/s 760 mmHg 32%
    10:00 +40°C° 0 mm 2 m/s 760 mmHg 26%
    11:00 +42°C° 0 mm 3 m/s 760 mmHg 24%
    12:00 +43°C° 0 mm 3 m/s 760 mmHg 23%
    13:00 +44°C° 0 mm 4 m/s 760 mmHg 21%
    14:00 +45°C° 0 mm 5 m/s 759 mmHg 22%
    15:00 +45°C° 0 mm 5 m/s 759 mmHg 22%
    16:00 +45°C° 0 mm 6 m/s 759 mmHg 23%
    17:00 +43°C° 0 mm 5 m/s 759 mmHg 25%
    18:00 +41°C° 0 mm 5 m/s 759 mmHg 28%
    19:00 +40°C° 0 mm 5 m/s 759 mmHg 30%
    20:00 +37°C° 0 mm 4 m/s 759 mmHg 33%
    21:00 +36°C° 0 mm 4 m/s 759 mmHg 37%
    22:00 +34°C° 0 mm 4 m/s 760 mmHg 40%
    23:00 +34°C° 0 mm 3 m/s 759 mmHg 40%

    30 Iulie, Duminică

    Timp Temperatura Precipitaţii Vânt Presiune Umiditate
    00:00 +34°C° 0 mm 3 m/s 759 mmHg 40%
    01:00 +34°C° 0 mm 3 m/s 759 mmHg 40%
    02:00 +33°C° 0 mm 3 m/s 759 mmHg 41%
    03:00 +33°C° 0 mm 3 m/s 758 mmHg 41%
    04:00 +32°C° 0 mm 2 m/s 758 mmHg 42%
    05:00 +32°C° 0 mm 2 m/s 758 mmHg 40%
    06:00 +34°C° 0 mm 2 m/s 758 mmHg 39%
    07:00 +35°C° 0 mm 2 m/s 758 mmHg 38%
    08:00 +37°C° 0 mm 2 m/s 758 mmHg 33%
    09:00 +40°C° 0 mm 2 m/s 758 mmHg 29%
    10:00 +43°C° 0 mm 2 m/s 759 mmHg 24%
    11:00 +44°C° 0 mm 3 m/s 758 mmHg 24%
    12:00 +44°C° 0 mm 3 m/s 758 mmHg 24%
    13:00 +44°C° 0 mm 4 m/s 758 mmHg 23%
    14:00 +44°C° 0 mm 4 m/s 757 mmHg 25%
    15:00 +43°C° 0 mm 4 m/s 757 mmHg 27%
    16:00 +43°C° 0 mm 4 m/s 757 mmHg 29%
    17:00 +40°C° 0 mm 3 m/s 757 mmHg 32%
    18:00 +39°C° 0 mm 3 m/s 757 mmHg 34%
    19:00 +37°C° 0 mm 2 m/s 757 mmHg 37%
    20:00 +36°C° 0 mm 2 m/s 758 mmHg 40%
    21:00 +35°C° 0 mm 2 m/s 758 mmHg 43%
    22:00 +32°C° 0 mm 1 m/s 758 mmHg 45%
    23:00 +32°C° 0 mm 1 m/s 758 mmHg 45%

    31 Iulie, Luni

    Timp Temperatura Precipitaţii Vânt Presiune Umiditate
    00:00 +32°C° 0 mm 1 m/s 758 mmHg 45%
    01:00 +32°C° 0 mm 1 m/s 758 mmHg 45%
    02:00 +32°C° 0 mm 1 m/s 758 mmHg 45%
    03:00 +31°C° 0 mm 1 m/s 757 mmHg 45%
    04:00 +31°C° 0 mm 1 m/s 757 mmHg 44%
    05:00 +32°C° 0 mm 1 m/s 757 mmHg 42%
    06:00 +34°C° 0 mm 2 m/s 757 mmHg 41%
    07:00 +34°C° 0 mm 2 m/s 757 mmHg 39%
    08:00 +37°C° 0 mm 2 m/s 757 mmHg 34%
    09:00 +39°C° 0 mm 2 m/s 757 mmHg 29%
    10:00 +43°C° 0 mm 3 m/s 757 mmHg 24%
    11:00 +44°C° 0 mm 3 m/s 757 mmHg 22%
    12:00 +47°C° 0 mm 4 m/s 756 mmHg 21%
    13:00 +48°C° 0 mm 4 m/s 756 mmHg 19%
    14:00 +48°C° 0 mm 5 m/s 756 mmHg 19%
    15:00 +48°C° 0 mm 5 m/s 756 mmHg 19%
    16:00 +48°C° 0 mm 6 m/s 755 mmHg 19%
    17:00 +46°C° 0 mm 5 m/s 755 mmHg 21%
    18:00 +45°C° 0 mm 5 m/s 756 mmHg 23%
    19:00 +43°C° 0 mm 4 m/s 756 mmHg 25%
    20:00 +41°C° 0 mm 4 m/s 756 mmHg 27%
    21:00 +38°C° 0 mm 4 m/s 756 mmHg 30%
    22:00 +37°C° 0 mm 3 m/s 757 mmHg 33%
    23:00 +37°C° 0 mm 3 m/s 757 mmHg 32%
    Arată mai mult